Tracking 30995 objects as of 6-Jul-2025
HD Live streaming from Space Station
objects crossing your sky now

NOAA 16 DEB

Track NOAA 16 DEB now!
10-day predictions


NORAD ID: 41233
Int'l Code: 2000-055EN
Perigee: 806.4 km
Apogee: 866.3 km
Inclination: 98.7 °
Period: 101.5 minutes
Semi major axis: 7207 km
RCS: Unknown
Launch date: September 21, 2000
Source: United States (US)
Launch site: AIR FORCE WESTERN TEST RANGE (AFWTR)

Note: This is SATELLITE DEBRIS
Your satellite tracking list
Your tracking list is empty




NASA's NSSDC Master Catalog

Two Line Element Set (TLE):
1 41233U 00055EN  25185.33621423  .00002443  00000-0  11841-2 0  9998
2 41233  98.7074 224.2038 0041526  65.3943 295.1551 14.18852994491787
Source of the keplerian elements: AFSPC